Location: Twin Oaks Observatory
(35.2860°N, 85.1951°W)
Time: 15:28:35
(UTC-05:00)

Daily predictions for brighter satellites

Satellite Brightness Start Highest point End
(mag) Time Altitude Azimuth Time Altitude Azimuth Time Altitude Azimuth
Cosmos 972 Rocket 4.3 17:48:41 10° NNW 17:53:33 72° WSW 17:58:34 10° S
CSL-04 Rocket 3.6 17:49:44 10° SSE 17:54:57 66° ENE 18:00:15 10° N
Cosmos 1703 Rocket 3.9 17:51:08 10° SSE 17:55:23 45° E 17:59:39 10° NNE
Cosmos 1484 Rocket 3.0 17:53:14 10° SSE 17:56:58 50° ENE 18:00:46 10° N
Cosmos 2221 Rocket 4.4 17:55:37 10° SSE 17:59:28 30° E 18:03:18 10° NNE
Tsikada Rocket 4.3 17:54:13 10° N 18:00:22 74° W 18:06:31 10° S
Cosmos 1486 Rocket 4.3 17:56:17 10° SSW 18:01:28 74° WNW 18:06:44 10° NNE
IRAS Rocket 4.3 17:56:28 10° SSE 18:02:01 88° WSW 18:07:33 10° NNW
CENTAUR R/B 4.4 18:00:50 10° W 18:05:34 22° NW 18:10:47 10° N
Cosmos 2082 Rocket 2.8 18:00:34 10° N 18:05:42 34° ENE 18:10:47 10° SE
OAO 3 Rocket 3.9 18:01:25 10° SW 18:06:06 47° SSE 18:10:51 10° E
ERS-2 3.4 18:03:37 10° ESE 18:06:26 21° ENE 18:09:16 10° NNE
BREEZE M DEB (TANK) 3.7 18:04:02 10° WNW 18:06:42 28° SW 18:08:42 10° SSE
CZ-4 R/B 1.5 18:04:46 10° SSE 18:08:28 46° ENE 18:12:09 10° N
ERBS 4.3 18:07:53 10° WNW 18:10:59 33° SW 18:14:06 10° S
Meteor 2-6 Rocket 4.5 18:06:29 10° SSE 18:11:36 44° E 18:16:50 10° NNE
Cosmos 972 4.3 18:07:58 10° NNW 18:12:55 84° ENE 18:17:48 10° SSE
Meteor 1-20 Rocket 4.1 18:12:11 10° N 18:17:43 74° E 18:23:08 10° SSE
Okean 2 Rocket 3.9 18:14:35 10° NNE 18:18:32 29° ENE 18:22:28 10° SE
Cosmos 1354 Rocket 4.0 18:15:13 10° SSW 18:20:30 81° ESE 18:25:47 10° NNE
Cosmos 405 Rocket 3.3 18:17:38 10° SSE 18:21:07 35° E 18:24:33 10° NNE
Cosmos 1633 2.6 18:17:33 10° N 18:21:10 54° E 18:24:45 10° SSE
Meteor 1-25 Rocket 4.3 18:17:23 10° N 18:23:15 88° W 18:29:00 10° S
Cosmos 1908 Rocket 3.6 18:19:24 10° N 18:23:44 82° W 18:28:03 10° S
Cosmos 1782 2.8 18:22:45 10° S 18:26:46 85° W 18:30:48 10° N
SKYMED 2 3.8 18:22:49 10° NNE 18:27:02 49° E 18:31:14 10° S
Cosmos 1464 Rocket 3.9 18:22:10 10° S 18:28:11 64° E 18:34:15 10° NNE
CZ-2C R/B 3.9 18:26:07 10° N 18:30:38 76° WNW 18:35:12 10° SSW
BREEZE-M R/B 2.8 18:27:57 10° NW 18:30:45 49° NE 18:35:33 10° ESE
SPOT 3 Rocket 4.0 18:26:52 10° SE 18:31:36 37° ENE 18:36:21 10° N
BREEZE-M DEB (TANK) 4.3 18:31:20 10° N 18:32:13 13° NNE 18:32:13 13° NNE
FENGYUN 3A 4.1 18:32:06 10° SE 18:36:59 36° ENE 18:41:53 10° N
Cosmos 44 Rocket 3.8 18:32:37 10° NNW 18:37:10 37° NE 18:41:47 10° ESE
Okean 1-7 3.2 18:35:09 10° S 18:39:30 77° W 18:43:55 10° N
GPS 2-05 Rocket1 2.5 18:37:11 10° WSW 18:40:20 78° S 18:41:40 32° E
Cosmos 292 Rocket 4.0 18:37:00 10° N 18:41:32 44° ENE 18:46:04 10° SE
ISS -1.9 18:40:37 10° S 18:42:42 16° SE 18:42:42 16° SE
Meteor 1-27 Rocket 3.8 18:41:16 10° S 18:47:02 60° E 18:52:53 10° NNE
MONITOR-E 3.9 18:50:39 10° SSE 18:53:39 74° E 18:56:42 10° N
Cosmos 44 3.2 18:51:59 10° NNW 18:56:43 64° ENE 19:01:40 10° SE
Cosmos 1833 Rocket 2.7 18:51:39 10° NNW 18:57:17 84° WSW 19:02:54 10° SSE
Cosmos 2369 Rocket 3.1 18:52:57 10° SSE 18:57:33 26° ESE 18:57:34 26° ESE
NOAA 12 4.0 18:57:57 10° SSE 19:03:13 67° ENE 19:08:30 10° N
Thor Agena Rocket 3.9 19:04:54 36° ENE 19:05:45 39° E 19:10:33 10° SSE
ALOS 2.1 19:03:39 10° SSE 19:08:18 77° ENE 19:12:59 10° N
Cosmos 405 3.0 19:06:05 10° N 19:09:41 83° W 19:13:15 10° S
YAOGAN 1 3.9 19:06:43 10° S 19:10:48 41° W 19:14:54 10° NNW
Cosmos 540 Rocket 4.2 19:07:43 10° NNW 19:12:44 53° WSW 19:17:42 10° S
COSMO-SKYMED 1 3.7 19:10:58 10° N 19:15:04 42° WNW 19:19:09 10° SW
Cosmos 968 Rocket 3.6 19:11:45 10° SSW 19:16:54 74° WNW 19:20:41 19° NNE
Tiangong 1 2.7 19:14:24 10° W 19:15:53 28° W 19:15:53 28° W
USA 234 3.2 19:14:25 27° NE 19:18:21 82° NW 19:24:53 10° SW
Cosmos 1441 Rocket 4.5 19:17:30 10° SSW 19:21:15 41° WNW 19:24:29 13° N
Cosmos 1943 Rocket 3.9 19:17:27 10° SSE 19:19:04 17° SE 19:19:04 17° SE
Cosmos 2084 Rocket 4.1 19:20:21 10° SSW 19:23:39 41° SSE 19:23:39 41° SSE
CZ-4C R/B 2.9 19:21:04 10° NNW 19:28:24 66° ENE 19:32:49 29° SE
Meteor 1-11 Rocket 3.9 19:26:08 10° NNW 19:31:55 71° W 19:37:33 10° S
Nadezhda 4 Rocket 4.1 19:35:06 10° N 19:41:11 72° W 19:47:16 10° S
Cosmos 1634 Rocket 3.8 19:35:20 10° S 19:41:26 71° E 19:42:05 65° NE
Cosmos 2151 Rocket 4.1 19:39:27 10° NNW 19:43:46 57° W 19:48:06 10° S
NOSS 3-1 (C) 4.0 19:40:20 10° S 19:43:57 38° SSE 19:43:57 38° SSE
OAO 3 Rocket 3.6 19:44:34 10° W 19:48:44 64° WSW 19:48:44 64° WSW
Cosmos 2082 Rocket 4.1 19:44:51 10° NW 19:49:36 28° WSW 19:54:20 10° SSW
Gblst 52 Del rocket 4.3 19:45:39 10° WSW 19:51:11 68° NW 19:51:35 66° NNW
Cosmos 1092 Rocket 4.0 19:54:11 10° N 20:00:20 74° W 20:06:30 10° S
Timation 2 Rocket 4.2 19:53:45 10° NNW 20:00:26 71° WSW 20:03:17 35° S
Centaur D AC-28 4.3 19:57:05 10° WSW 20:03:20 61° S 21:05:18 10° ESE
Centaur D AC-28 4.3 19:57:06 10° WSW 20:03:20 61° S 21:05:19 10° ESE
Centaur D AC-28 4.3 19:57:05 10° WSW 20:03:20 61° S 21:05:19 10° ESE
USA 229 DEB 4.2 20:02:03 10° SW 20:08:37 54° NW 20:10:13 45° NNW
USA 229 4.2 20:02:09 10° SW 20:08:43 55° NW 20:10:16 46° NNW
Cosmos 2369 Rocket 3.9 20:36:11 10° SW 20:39:26 28° W 20:39:26 28° W
